Regional Weather Roundup
Issued by NWS

Home | Current Version | Previous Version | Graphics & Text | Print | Product List | Glossary On
Versions: 1 2 3 4 5 6 7 8 9 10 11 12 13 14 15 16 17 18 19 20 21 22 23 24 25 26 27 28 29 30 31 32 33 34 35 36 37 38 39 40 41 42 43 44 45 46 47 48 49 50
000
ASUS43 KMKX 190821
RWRWI

WISCONSIN REGIONAL WEATHER ROUNDUP
NATIONAL WEATHER SERVICE MILWAUKEE/SULLIVAN WI
200 AM CST SUN FEB 19 2017

NOTE: "FAIR" INDICATES FEW OR NO CLOUDS BELOW 12,000 FEET WITH NO
SIGNIFICANT WEATHER AND/OR OBSTRUCTIONS TO VISIBILITY.

WIZ001-002-006>008-014>016-023>028-190900-
NORTHWEST WISCONSIN

CITY           SKY/WX    TMP DP  RH WIND       PRES   REMARKS
SUPERIOR ARPT  CLOUDY    35  30  82 CALM      29.88R
ASHLAND        CLEAR     36  28  73 N3        29.87R
HAYWARD        CLOUDY    32  28  85 N3        29.87S
SIREN          CLEAR     31  29  94 CALM      29.89R
CUMBERLAND     CLEAR     34  32  93 CALM      29.88R
RICE LAKE      CLEAR     32  31  95 CALM      29.90R
CHETEK         CLEAR     32  31  97 CALM      29.88R
LADYSMITH      CLOUDY    33  31  91 CALM      29.89R
EAU CLAIRE     CLEAR     32  32 100 CALM      29.88R
MENOMONIE      CLEAR     32  31  96 NW3       29.89R
NEW RICHMOND   CLEAR     33  32  97 CALM      29.89R
OSCEOLA        CLEAR     31  31 100 CALM      29.92R
$$

WIZ003>005-009-010-017-018-190900-
NORTH CENTRAL WISCONSIN

CITY           SKY/WX    TMP DP  RH WIND       PRES   REMARKS
MANITOWISH WTR CLOUDY    37  30  75 CALM      29.85R
ARBOR VITAE    MOCLDY    42  32  69 CALM      29.85R
WOODRUFF       MOCLDY    42  32  69 CALM      29.85R
RHINELANDER    PTCLDY    43  32  65 W9        29.85R
EAGLE RIVER    PTCLDY    40  28  62 W9        29.84R WCI  34
LAND O LAKES   PTCLDY    39  27  63 W5        29.86R
PHILLIPS       CLEAR     32  30  94 CALM      29.87R
TOMAHAWK       MOCLDY    41  32  70 W3        29.86R
MEDFORD        PTCLDY    38  32  79 W3        29.87R
MERRILL        NOT AVBL
$$

WIZ029-030-035-036-043>047-190900-
CENTRAL WISCONSIN

CITY           SKY/WX    TMP DP  RH WIND       PRES   REMARKS
WAUSAU         PTCLDY    39  32  76 NW3       29.85R
MOSINEE        CLOUDY    37  34  87 W3        29.87R
MARSHFIELD     CLOUDY    36  31  82 NW6       29.86R WCI  31
STEVENS POINT  CLOUDY    40  32  73 CALM      29.88R
WAUPACA        CLOUDY    45  32  61 CALM      29.87R
WAUTOMA        CLOUDY    36  31  82 CALM      29.88R
WISC RAPIDS    MOCLDY    34  30  85 CALM      29.88R
CAMP DOUGLAS   PTCLDY    29  26  91 CALM      29.88R
$$

WIZ011>013-019>022-031-037>040-048>050-190900-
NORTHEAST WISCONSIN

CITY           SKY/WX    TMP DP  RH WIND       PRES   REMARKS
ANTIGO         CLOUDY    32  30  91 N3        29.85R
SHAWANO        CLOUDY    43  32  66 SW3       29.86R
OCONTO         MOCLDY    39  31  72 W3        29.84R
STURGEON BAY   MOCLDY    42  31  64 W9        29.83R
GREEN BAY      CLOUDY    40  33  76 W8        29.85R WCI  34
MANITOWOC      CLOUDY    44  31  60 MISG      29.85R
APPLETON       PTCLDY    37  28  70 W10       29.84R WCI  30
CLINTONVILLE   CLOUDY    37  32  81 CALM      29.86R
OSHKOSH        CLOUDY    41  30  65 W5        29.86R
$$

WIZ032>034-041-042-053>061-190900-
SOUTHWEST WISCONSIN

CITY           SKY/WX    TMP DP  RH WIND       PRES   REMARKS
LA CROSSE      CLEAR     35  31  85 SE5       29.89S WCI  31
SPARTA         CLEAR     27  25  94 CALM      29.92R
VIROQUA        CLEAR     41  34  76 CALM      29.90R
BOSCOBEL       CLEAR     27  25  92 CALM      29.92R FOG
PRAIRIE DU CHI CLEAR     31  31  96 CALM      29.91S FOG
PLATTEVILLE    CLOUDY    36  36 100 W3        29.90R
$$

WIZ056-057-062-063-064-067-068-190900-
SOUTH CENTRAL WISCONSIN

CITY           SKY/WX    TMP DP  RH WIND       PRES   REMARKS
REEDSBURG      CLOUDY    30  29  95 CALM      29.89R
BARABOO/DELLS  CLOUDY    35  30  84 CALM      29.89R
LONE ROCK      CLEAR     30  27  88 CALM      29.91R
MINERAL POINT  CLOUDY    43  34  70 N3        29.89S
MADISON        CLEAR     30  29  96 CALM      29.89R
MIDDLETON      CLEAR     33  32  96 CALM      29.90R
WATERTOWN      CLEAR     29  29  98 CALM      29.89R
MONROE         CLOUDY    48  32  53 N6        29.89R
JANESVILLE     CLOUDY    32  32 100 CALM      29.89R FOG
$$

WIZ051-052-058>065-066-070>072-190900-
SOUTHEAST WISCONSIN

CITY           SKY/WX    TMP DP  RH WIND       PRES   REMARKS
MILWAUKEE      CLOUDY    38  29  70 CALM      29.88R
WAUKESHA         N/A     32  28  86 CALM      29.90R
MILWAUKEE/TIMM PTCLDY    37  30  75 CALM      29.88R
RACINE         PTCLDY    45  35  68 W6        29.89R
KENOSHA        CLOUDY    40  36  86 NW5       29.88R
FOND DU LAC    PTCLDY    34  27  75 CALM      29.87R
SHEBOYGAN      MOCLDY    39  30  70 SW6       29.85R WCI  35
WEST BEND      PTCLDY    41  30  65 W5        29.87R
JUNEAU         CLEAR     34  30  83 SW5       29.89R WCI  30
$$

LSZ147-162-190900-
LAKE SUPERIOR

STATION/POSITION TIME  TEMP    WIND        PRES    WAVE
                       AIR SEA DIR/SP/G            HT/PER
                 (UTC) (F)     (DEG/KT/KT) (MB)    (FT/S)
DEVILS ISLAND    0800   39     250/  9/ 11 1012.1R
PORT WING        0740   37     200/  1/  3 1011.9R
SAXON HARBOR     0730   35     210/  5/  7 1011.5R
$$

LMZ867-665-643>646-190900-
LAKE MICHIGAN

STATION/POSITION TIME  TEMP    WIND        PRES    WAVE
                       AIR SEA DIR/SP/G            HT/PER
                 (UTC) (F)     (DEG/KT/KT) (MB)    (FT/S)
CHAMBERS ISLAND  0740   37     180/  5/  7 1009.1R
NORTHPORT PIER   0740   45     260/  2/  5 1009.1R
SISTER BAY       0650   45     280/ 11/ 12   N/A
ALGOMA LAKESHORE 0540          310/ 11/ 16   N/A
KEWAUNEE LAKESHO 0754   45     300/  8/ 10 1009.3R
SHEBOYGAN LAKESH 0800   47     290/  4/  5 1010.9R
PORT WASHINGTON  0740   46     280/  4/  6 1011.9R
MILWAUKEE LAKESH 0750   48     290/  9/ 10   N/A
KENOSHA   LAKESH 0800   48     300/  8/ 11 1011.9
$$

TC  - TEMPERATURE IN CELSIUS
VSB - VISIBILITY IN STATUTE MILES
WCI - WIND CHILL INDEX
HX  - HEAT INDEX





USA.gov is the U.S. government's official web portal to all federal, state and local government web resources and services.